Time,TemperatureF,DewpointF,PressureIn,WindDirection,WindDirectionDegrees,WindSpeedMPH,WindSpeedGustMPH,Humidity,HourlyPrecipIn,Conditions,Clouds,dailyrainin,SoftwareType,DateUTC
2013-03-04 00:01:00,42.0,33.0,30.16,NW,308,5.0,8.0,71,0.48,,,-99.99,,2013-03-04 05:01:00,
2013-03-04 00:11:00,42.0,33.0,30.16,NW,308,5.0,8.0,71,0.48,,,-99.99,,2013-03-04 05:11:00,
2013-03-04 00:22:00,42.0,34.0,30.16,NW,319,4.0,7.0,72,0.48,,,-99.99,,2013-03-04 05:22:00,
2013-03-04 00:32:00,42.0,34.0,30.16,NW,325,5.0,8.0,72,0.48,,,-99.99,,2013-03-04 05:32:00,
2013-03-04 00:42:00,42.0,34.0,30.16,NNW,340,5.0,6.0,72,0.48,,,-99.99,,2013-03-04 05:42:00,
2013-03-04 00:52:00,42.0,34.0,30.16,NNW,340,5.0,6.0,72,0.48,,,-99.99,,2013-03-04 05:52:00,
2013-03-04 01:02:00,42.0,34.0,30.16,NNW,329,4.0,5.0,73,0.48,,,-99.99,,2013-03-04 06:02:00,
2013-03-04 01:11:00,42.0,34.0,30.16,NNW,329,4.0,5.0,73,0.48,,,-99.99,,2013-03-04 06:11:00,
2013-03-04 01:22:00,42.0,34.0,30.16,NW,321,0.0,2.0,73,0.48,,,-99.99,,2013-03-04 06:22:00,
2013-03-04 01:32:00,42.0,34.0,30.16,North,0,0.0,0.0,73,0.48,,,-99.99,,2013-03-04 06:32:00,
2013-03-04 01:42:00,42.0,34.0,30.16,North,0,0.0,0.0,73,0.48,,,-99.99,,2013-03-04 06:42:00,
2013-03-04 01:52:00,41.0,33.0,30.15,North,0,0.0,0.0,74,0.48,,,-99.99,,2013-03-04 06:52:00,
2013-03-04 02:01:00,41.0,34.0,30.15,North,0,0.0,0.0,75,0.48,,,-99.99,,2013-03-04 07:01:00,
2013-03-04 02:11:00,41.0,34.0,30.15,North,0,0.0,0.0,75,0.48,,,-99.99,,2013-03-04 07:11:00,
2013-03-04 02:21:00,41.0,34.0,30.15,North,0,0.0,0.0,75,0.48,,,-99.99,,2013-03-04 07:21:00,
2013-03-04 02:32:00,41.0,33.0,30.15,North,0,0.0,0.0,74,0.48,,,-99.99,,2013-03-04 07:32:00,
2013-03-04 02:42:00,41.0,33.0,30.15,North,0,0.0,0.0,74,0.48,,,-99.99,,2013-03-04 07:42:00,
2013-03-04 02:52:00,41.0,35.0,30.15,NNW,332,1.0,3.0,78,0.48,,,-99.99,,2013-03-04 07:52:00,
2013-03-04 03:02:00,41.0,34.0,30.14,NNW,347,4.0,5.0,76,0.48,,,-99.99,,2013-03-04 08:02:00,
2013-03-04 03:11:00,41.0,36.0,30.14,NNW,343,4.0,5.0,81,0.48,,,-99.99,,2013-03-04 08:11:00,
2013-03-04 03:22:00,41.0,36.0,30.14,NNW,343,4.0,5.0,81,0.48,,,-99.99,,2013-03-04 08:22:00,
2013-03-04 03:32:00,40.0,34.0,30.14,North,354,5.0,5.0,78,0.48,,,-99.99,,2013-03-04 08:32:00,
2013-03-04 03:42:00,40.0,34.0,30.14,North,354,5.0,5.0,78,0.48,,,-99.99,,2013-03-04 08:42:00,
2013-03-04 03:52:00,40.0,33.0,30.14,North,353,5.0,6.0,77,0.48,,,-99.99,,2013-03-04 08:52:00,
2013-03-04 04:02:00,40.0,32.0,30.14,North,352,6.0,8.0,74,0.48,,,-99.99,,2013-03-04 09:02:00,
2013-03-04 04:11:00,40.0,32.0,30.14,North,352,6.0,8.0,74,0.48,,,-99.99,,2013-03-04 09:11:00,
2013-03-04 04:22:00,40.0,33.0,30.13,North,356,6.0,7.0,75,0.48,,,-99.99,,2013-03-04 09:22:00,
2013-03-04 04:32:00,39.0,32.0,30.14,NNW,342,6.0,6.0,77,0.48,,,-99.99,,2013-03-04 09:32:00,
2013-03-04 04:42:00,39.0,32.0,30.14,NNW,342,6.0,6.0,77,0.48,,,-99.99,,2013-03-04 09:42:00,
2013-03-04 04:52:00,39.0,33.0,30.13,North,350,6.0,8.0,78,0.48,,,-99.99,,2013-03-04 09:52:00,
2013-03-04 05:01:00,39.0,33.0,30.14,North,350,5.0,6.0,79,0.48,,,-99.99,,2013-03-04 10:01:00,
2013-03-04 05:11:00,39.0,33.0,30.14,North,350,5.0,6.0,79,0.48,,,-99.99,,2013-03-04 10:11:00,
2013-03-04 05:22:00,38.0,32.0,30.15,NNW,343,4.0,6.0,80,0.48,,,-99.99,,2013-03-04 10:22:00,
2013-03-04 05:32:00,38.0,32.0,30.15,NNW,346,7.0,9.0,79,0.48,,,-99.99,,2013-03-04 10:32:00,
2013-03-04 05:42:00,38.0,32.0,30.15,North,353,5.0,7.0,80,0.48,,,-99.99,,2013-03-04 10:42:00,
2013-03-04 05:52:00,38.0,32.0,30.15,North,353,5.0,7.0,80,0.48,,,-99.99,,2013-03-04 10:52:00,
2013-03-04 06:02:00,38.0,32.0,30.16,NNW,339,3.0,5.0,80,0.48,,,-99.99,,2013-03-04 11:02:00,
2013-03-04 06:11:00,38.0,32.0,30.16,NNW,339,3.0,5.0,80,0.48,,,-99.99,,2013-03-04 11:11:00,
2013-03-04 06:22:00,38.0,32.0,30.16,NNW,345,4.0,5.0,80,0.48,,,-99.99,,2013-03-04 11:22:00,
2013-03-04 06:32:00,38.0,32.0,30.16,North,349,5.0,6.0,80,0.48,,,-99.99,,2013-03-04 11:32:00,
2013-03-04 06:42:00,38.0,32.0,30.16,North,349,5.0,6.0,80,0.48,,,-99.99,,2013-03-04 11:42:00,
2013-03-04 06:52:00,38.0,32.0,30.17,NNW,335,4.0,5.0,80,0.48,,,-99.99,,2013-03-04 11:52:00,
2013-03-04 07:02:00,38.0,32.0,30.18,North,0,0.0,0.0,80,0.48,,,-99.99,,2013-03-04 12:02:00,
2013-03-04 07:11:00,39.0,34.0,30.19,North,0,0.0,0.0,81,0.48,,,-99.99,,2013-03-04 12:11:00,
2013-03-04 07:22:00,39.0,34.0,30.19,North,0,0.0,0.0,81,0.48,,,-99.99,,2013-03-04 12:22:00,
2013-03-04 07:32:00,39.0,34.0,30.19,North,0,0.0,0.0,81,0.48,,,-99.99,,2013-03-04 12:32:00,
2013-03-04 07:42:00,39.0,34.0,30.19,North,0,0.0,0.0,81,0.48,,,-99.99,,2013-03-04 12:42:00,
2013-03-04 07:53:00,39.0,33.0,30.19,NNW,347,4.0,6.0,80,0.48,,,-99.99,,2013-03-04 12:53:00,
2013-03-04 08:02:00,40.0,33.0,30.19,North,353,6.0,9.0,77,0.48,,,-99.99,,2013-03-04 13:02:00,
2013-03-04 08:11:00,40.0,33.0,30.19,North,353,6.0,9.0,77,0.48,,,-99.99,,2013-03-04 13:11:00,
2013-03-04 08:21:00,42.0,32.0,30.20,North,352,6.0,11.0,68,0.48,,,-99.99,,2013-03-04 13:21:00,
2013-03-04 08:32:00,44.0,31.0,30.21,NNW,345,6.0,9.0,61,0.48,,,-99.99,,2013-03-04 13:32:00,
2013-03-04 08:42:00,44.0,31.0,30.21,NNW,345,6.0,9.0,61,0.48,,,-99.99,,2013-03-04 13:42:00,
2013-03-04 08:52:00,46.0,29.0,30.22,NNW,342,8.0,13.0,52,0.48,,,-99.99,,2013-03-04 13:52:00,
2013-03-04 09:01:00,46.0,27.0,30.22,NNW,343,10.0,14.0,48,0.48,,,-99.99,,2013-03-04 14:01:00,
2013-03-04 09:11:00,46.0,27.0,30.22,NNW,343,10.0,14.0,48,0.48,,,-99.99,,2013-03-04 14:11:00,
2013-03-04 09:22:00,48.0,28.0,30.23,North,359,6.0,12.0,45,0.48,,,-99.99,,2013-03-04 14:22:00,
2013-03-04 09:32:00,48.0,27.0,30.23,North,357,6.0,12.0,44,0.48,,,-99.99,,2013-03-04 14:32:00,
2013-03-04 09:42:00,48.0,27.0,30.23,North,357,6.0,12.0,44,0.48,,,-99.99,,2013-03-04 14:42:00,
2013-03-04 09:52:00,49.0,26.0,30.23,NNW,342,8.0,14.0,41,0.48,,,-99.99,,2013-03-04 14:52:00,
2013-03-04 10:01:00,50.0,28.0,30.23,North,349,6.0,13.0,42,0.48,,,-99.99,,2013-03-04 15:01:00,
2013-03-04 10:11:00,50.0,28.0,30.23,North,349,6.0,13.0,42,0.48,,,-99.99,,2013-03-04 15:11:00,
2013-03-04 10:22:00,50.0,28.0,30.22,NNW,345,4.0,12.0,43,0.48,,,-99.99,,2013-03-04 15:22:00,
2013-03-04 10:32:00,51.0,27.0,30.22,NNW,330,6.0,12.0,39,0.48,,,-99.99,,2013-03-04 15:32:00,
2013-03-04 10:42:00,51.0,27.0,30.22,NNW,330,6.0,12.0,39,0.48,,,-99.99,,2013-03-04 15:42:00,
2013-03-04 10:52:00,52.0,28.0,30.21,North,10,5.0,12.0,40,0.48,,,-99.99,,2013-03-04 15:52:00,
2013-03-04 11:02:00,53.0,26.0,30.22,NNW,343,7.0,14.0,35,0.48,,,-99.99,,2013-03-04 16:02:00,
2013-03-04 11:11:00,53.0,26.0,30.22,NNW,343,7.0,14.0,35,0.48,,,-99.99,,2013-03-04 16:11:00,
2013-03-04 11:21:00,53.0,27.0,30.20,North,349,5.0,12.0,36,0.48,,,-99.99,,2013-03-04 16:21:00,
2013-03-04 11:32:00,54.0,27.0,30.20,North,350,5.0,9.0,35,0.48,,,-99.99,,2013-03-04 16:32:00,
2013-03-04 11:42:00,54.0,27.0,30.20,North,350,5.0,9.0,35,0.48,,,-99.99,,2013-03-04 16:42:00,
2013-03-04 11:52:00,55.0,27.0,30.20,North,350,5.0,12.0,34,0.48,,,-99.99,,2013-03-04 16:52:00,
2013-03-04 12:02:00,56.0,27.0,30.20,North,350,4.0,10.0,33,0.48,,,-99.99,,2013-03-04 17:02:00,
2013-03-04 12:11:00,56.0,27.0,30.20,North,350,4.0,10.0,33,0.48,,,-99.99,,2013-03-04 17:11:00,
2013-03-04 12:22:00,57.0,27.0,30.19,North,7,2.0,5.0,31,0.48,,,-99.99,,2013-03-04 17:22:00,
2013-03-04 12:32:00,57.0,27.0,30.18,NNW,345,5.0,10.0,31,0.48,,,-99.99,,2013-03-04 17:32:00,
2013-03-04 12:42:00,57.0,27.0,30.18,NNW,345,5.0,10.0,31,0.48,,,-99.99,,2013-03-04 17:42:00,
2013-03-04 12:52:00,58.0,25.0,30.18,NNW,343,4.0,10.0,28,0.48,,,-99.99,,2013-03-04 17:52:00,
2013-03-04 13:01:00,60.0,27.0,30.17,NW,312,7.0,12.0,28,0.48,,,-99.99,,2013-03-04 18:01:00,
2013-03-04 13:11:00,60.0,27.0,30.17,NW,312,7.0,12.0,28,0.48,,,-99.99,,2013-03-04 18:11:00,
2013-03-04 13:22:00,60.0,27.0,30.16,NNW,328,4.0,9.0,28,0.48,,,-99.99,,2013-03-04 18:22:00,
2013-03-04 13:32:00,62.0,27.0,30.15,North,352,1.0,7.0,26,0.48,,,-99.99,,2013-03-04 18:32:00,
2013-03-04 13:42:00,62.0,27.0,30.15,North,352,1.0,7.0,26,0.48,,,-99.99,,2013-03-04 18:42:00,
2013-03-04 13:52:00,61.0,27.0,30.15,NW,308,2.0,7.0,27,0.48,,,-99.99,,2013-03-04 18:52:00,
2013-03-04 14:02:00,62.0,27.0,30.15,WNW,288,4.0,9.0,26,0.48,,,-99.99,,2013-03-04 19:02:00,
2013-03-04 14:11:00,62.0,27.0,30.15,WNW,288,4.0,9.0,26,0.48,,,-99.99,,2013-03-04 19:11:00,
2013-03-04 14:22:00,63.0,27.0,30.14,NNW,347,3.0,9.0,25,0.48,,,-99.99,,2013-03-04 19:22:00,
2013-03-04 14:32:00,63.0,27.0,30.13,NE,56,3.0,9.0,25,0.48,,,-99.99,,2013-03-04 19:32:00,
2013-03-04 14:42:00,63.0,27.0,30.13,NE,56,3.0,9.0,25,0.48,,,-99.99,,2013-03-04 19:42:00,
2013-03-04 14:52:00,65.0,28.0,30.13,ESE,105,3.0,6.0,25,0.48,,,-99.99,,2013-03-04 19:52:00,
2013-03-04 15:02:00,64.0,27.0,30.12,NNW,345,1.0,9.0,25,0.48,,,-99.99,,2013-03-04 20:02:00,
2013-03-04 15:11:00,65.0,26.0,30.12,North,349,3.0,9.0,23,0.48,,,-99.99,,2013-03-04 20:11:00,
2013-03-04 15:22:00,65.0,26.0,30.12,North,349,3.0,9.0,23,0.48,,,-99.99,,2013-03-04 20:22:00,
2013-03-04 15:32:00,65.0,26.0,30.12,ESE,108,1.0,4.0,23,0.48,,,-99.99,,2013-03-04 20:32:00,
2013-03-04 15:42:00,65.0,26.0,30.12,ESE,108,1.0,4.0,23,0.48,,,-99.99,,2013-03-04 20:42:00,
2013-03-04 15:53:00,65.0,27.0,30.12,East,80,2.0,7.0,24,0.48,,,-99.99,,2013-03-04 20:53:00,
2013-03-04 16:02:00,65.0,26.0,30.11,NNW,347,1.0,5.0,23,0.48,,,-99.99,,2013-03-04 21:02:00,
2013-03-04 16:12:00,65.0,26.0,30.11,NNW,347,1.0,5.0,23,0.48,,,-99.99,,2013-03-04 21:12:00,
2013-03-04 16:22:00,65.0,25.0,30.11,NNW,342,1.0,4.0,22,0.48,,,-99.99,,2013-03-04 21:22:00,
2013-03-04 16:32:00,66.0,27.0,30.12,North,352,1.0,5.0,23,0.48,,,-99.99,,2013-03-04 21:32:00,
2013-03-04 16:42:00,66.0,27.0,30.12,North,352,1.0,5.0,23,0.48,,,-99.99,,2013-03-04 21:42:00,
2013-03-04 16:53:00,67.0,27.0,30.12,ESE,110,3.0,8.0,22,0.48,,,-99.99,,2013-03-04 21:53:00,
2013-03-04 17:02:00,67.0,26.0,30.12,ENE,76,4.0,7.0,21,0.48,,,-99.99,,2013-03-04 22:02:00,
2013-03-04 17:12:00,67.0,26.0,30.12,ENE,76,4.0,7.0,21,0.48,,,-99.99,,2013-03-04 22:12:00,
2013-03-04 17:22:00,67.0,27.0,30.12,ESE,105,2.0,5.0,22,0.48,,,-99.99,,2013-03-04 22:22:00,
2013-03-04 17:32:00,67.0,28.0,30.12,East,83,3.0,6.0,23,0.48,,,-99.99,,2013-03-04 22:32:00,
2013-03-04 17:42:00,67.0,28.0,30.12,East,83,3.0,6.0,23,0.48,,,-99.99,,2013-03-04 22:42:00,
2013-03-04 17:52:00,67.0,27.0,30.12,ENE,63,0.0,2.0,22,0.48,,,-99.99,,2013-03-04 22:52:00,
2013-03-04 18:02:00,67.0,28.0,30.13,ENE,77,3.0,6.0,23,0.48,,,-99.99,,2013-03-04 23:02:00,
2013-03-04 18:11:00,67.0,28.0,30.13,ENE,77,3.0,6.0,23,0.48,,,-99.99,,2013-03-04 23:11:00,
2013-03-04 18:22:00,67.0,30.0,30.13,ESE,110,3.0,5.0,25,0.48,,,-99.99,,2013-03-04 23:22:00,
2013-03-04 18:32:00,66.0,31.0,30.14,SE,125,3.0,4.0,27,0.48,,,-99.99,,2013-03-04 23:32:00,
2013-03-04 18:42:00,66.0,31.0,30.14,SE,125,3.0,4.0,27,0.48,,,-99.99,,2013-03-04 23:42:00,
2013-03-04 18:52:00,63.0,32.0,30.15,ESE,111,5.0,6.0,31,0.48,,,-99.99,,2013-03-04 23:52:00,
2013-03-04 19:02:00,61.0,32.0,30.15,East,101,7.0,7.0,33,0.48,,,-99.99,,2013-03-05 00:02:00,
2013-03-04 19:12:00,61.0,32.0,30.15,East,101,7.0,7.0,33,0.48,,,-99.99,,2013-03-05 00:12:00,
2013-03-04 19:22:00,60.0,32.0,30.15,ESE,107,6.0,7.0,34,0.48,,,-99.99,,2013-03-05 00:22:00,
2013-03-04 19:32:00,59.0,32.0,30.15,SE,134,6.0,7.0,36,0.48,,,-99.99,,2013-03-05 00:32:00,
2013-03-04 19:42:00,59.0,32.0,30.15,SE,134,6.0,7.0,36,0.48,,,-99.99,,2013-03-05 00:42:00,
2013-03-04 19:52:00,58.0,33.0,30.15,ESE,114,5.0,6.0,39,0.48,,,-99.99,,2013-03-05 00:52:00,
2013-03-04 20:01:00,58.0,33.0,30.15,ESE,113,6.0,6.0,39,0.48,,,-99.99,,2013-03-05 01:01:00,
2013-03-04 20:12:00,58.0,33.0,30.15,ESE,113,6.0,6.0,39,0.48,,,-99.99,,2013-03-05 01:12:00,
2013-03-04 20:22:00,58.0,37.0,30.15,ESE,113,7.0,8.0,46,0.48,,,-99.99,,2013-03-05 01:22:00,
2013-03-04 20:32:00,57.0,34.0,30.15,ESE,104,8.0,8.0,41,0.48,,,-99.99,,2013-03-05 01:32:00,
2013-03-04 20:42:00,57.0,34.0,30.15,ESE,104,8.0,8.0,41,0.48,,,-99.99,,2013-03-05 01:42:00,
2013-03-04 20:52:00,57.0,32.0,30.15,East,97,8.0,8.0,38,0.48,,,-99.99,,2013-03-05 01:52:00,
2013-03-04 21:01:00,57.0,32.0,30.15,ESE,108,7.0,8.0,38,0.48,,,-99.99,,2013-03-05 02:01:00,
2013-03-04 21:11:00,57.0,32.0,30.15,ESE,108,7.0,8.0,38,0.48,,,-99.99,,2013-03-05 02:11:00,
2013-03-04 21:22:00,57.0,32.0,30.15,ESE,108,8.0,8.0,38,0.48,,,-99.99,,2013-03-05 02:22:00,
2013-03-04 21:32:00,56.0,34.0,30.16,East,97,9.0,11.0,44,0.48,,,-99.99,,2013-03-05 02:32:00,
2013-03-04 21:42:00,56.0,34.0,30.16,East,97,9.0,11.0,44,0.48,,,-99.99,,2013-03-05 02:42:00,
2013-03-04 21:53:00,54.0,37.0,30.16,ESE,103,9.0,12.0,53,0.48,,,-99.99,,2013-03-05 02:53:00,
2013-03-04 22:02:00,52.0,39.0,30.16,ESE,105,8.0,11.0,62,0.48,,,-99.99,,2013-03-05 03:02:00,
2013-03-04 22:12:00,52.0,41.0,30.16,ESE,107,9.0,12.0,66,0.48,,,-99.99,,2013-03-05 03:12:00,
2013-03-04 22:22:00,52.0,41.0,30.16,ESE,107,9.0,12.0,66,0.48,,,-99.99,,2013-03-05 03:22:00,
2013-03-04 22:32:00,52.0,42.0,30.16,East,98,9.0,12.0,68,0.48,,,-99.99,,2013-03-05 03:32:00,
2013-03-04 22:42:00,52.0,42.0,30.16,East,98,9.0,12.0,68,0.48,,,-99.99,,2013-03-05 03:42:00,
2013-03-04 22:52:00,51.0,41.0,30.17,ESE,110,8.0,12.0,69,0.48,,,-99.99,,2013-03-05 03:52:00,
2013-03-04 23:02:00,50.0,41.0,30.17,SSW,198,1.0,4.0,72,0.48,,,-99.99,,2013-03-05 04:02:00,
2013-03-04 23:12:00,50.0,41.0,30.17,SSW,198,1.0,4.0,72,0.48,,,-99.99,,2013-03-05 04:12:00,
2013-03-04 23:22:00,50.0,42.0,30.16,North,0,0.0,0.0,74,0.48,,,-99.99,,2013-03-05 04:22:00,
2013-03-04 23:32:00,50.0,42.0,30.17,SSW,193,2.0,4.0,75,0.48,,,-99.99,,2013-03-05 04:32:00,
2013-03-04 23:42:00,50.0,42.0,30.17,SSW,193,2.0,4.0,75,0.48,,,-99.99,,2013-03-05 04:42:00,
2013-03-04 23:52:00,49.0,42.0,30.16,South,191,4.0,5.0,76,0.48,,,-99.99,,2013-03-05 04:52:00,